Hourly Weather Bolshie Milcy

Today, 23 June, Wednesday

Time Temperature Precipitation Wind Pressure Humidity
00:00 +24°C° 0.3 mm 2 mps 754 mmHg 87%
01:00 +23°C° 0.3 mm 2 mps 754 mmHg 91%
02:00 +23°C° 0 mm 2 mps 754 mmHg 93%
03:00 +23°C° 0.1 mm 2 mps 754 mmHg 93%
04:00 +23°C° 0.1 mm 2 mps 754 mmHg 93%
05:00 +23°C° 0.1 mm 2 mps 754 mmHg 93%
06:00 +25°C° 0 mm 2 mps 754 mmHg 83%
07:00 +27°C° 0 mm 3 mps 754 mmHg 73%
08:00 +29°C° 0 mm 3 mps 754 mmHg 63%
09:00 +30°C° 0 mm 4 mps 754 mmHg 54%
10:00 +33°C° 0 mm 4 mps 755 mmHg 45%
11:00 +34°C° 0 mm 5 mps 755 mmHg 37%
12:00 +35°C° 0 mm 5 mps 755 mmHg 35%
13:00 +35°C° 0 mm 5 mps 754 mmHg 34%
14:00 +36°C° 0 mm 5 mps 754 mmHg 32%
15:00 +35°C° 0 mm 5 mps 754 mmHg 35%
16:00 +35°C° 0 mm 5 mps 754 mmHg 39%
17:00 +34°C° 0 mm 4 mps 754 mmHg 42%
18:00 +32°C° 0.8 mm 4 mps 754 mmHg 55%
19:00 +28°C° 0.8 mm 3 mps 755 mmHg 68%
20:00 +25°C° 0.8 mm 2 mps 755 mmHg 82%
21:00 +24°C° 0.7 mm 2 mps 755 mmHg 86%
22:00 +23°C° 0.7 mm 1 mps 755 mmHg 90%
23:00 +22°C° 0.7 mm 1 mps 755 mmHg 94%

Tomorrow, 24 June, Thursday

Time Temperature Precipitation Wind Pressure Humidity
00:00 +22°C° 0.2 mm 1 mps 755 mmHg 94%
01:00 +22°C° 0.2 mm 1 mps 756 mmHg 95%
02:00 +21°C° 0.2 mm 1 mps 756 mmHg 95%
03:00 +22°C° 0.4 mm 1 mps 756 mmHg 95%
04:00 +22°C° 0.4 mm 1 mps 756 mmHg 95%
05:00 +22°C° 0.4 mm 1 mps 756 mmHg 95%
06:00 +23°C° 0.5 mm 1 mps 756 mmHg 92%
07:00 +24°C° 0.5 mm 1 mps 756 mmHg 89%
08:00 +25°C° 0.5 mm 1 mps 756 mmHg 87%
09:00 +26°C° 0 mm 1 mps 756 mmHg 80%
10:00 +27°C° 0 mm 1 mps 756 mmHg 73%
11:00 +28°C° 0 mm 1 mps 756 mmHg 67%
12:00 +28°C° 0.9 mm 1 mps 756 mmHg 71%
13:00 +27°C° 0.9 mm 1 mps 755 mmHg 75%
14:00 +27°C° 0.9 mm 1 mps 755 mmHg 79%
15:00 +28°C° 0.4 mm 1 mps 755 mmHg 73%
16:00 +29°C° 0.4 mm 1 mps 755 mmHg 67%
17:00 +30°C° 0.4 mm 1 mps 754 mmHg 61%
18:00 +27°C° 1.9 mm 2 mps 754 mmHg 72%
19:00 +24°C° 1.9 mm 3 mps 755 mmHg 82%
20:00 +20°C° 1.9 mm 4 mps 755 mmHg 93%
21:00 +20°C° 0.9 mm 3 mps 754 mmHg 94%
22:00 +19°C° 0.9 mm 2 mps 754 mmHg 95%
23:00 +20°C° 0.9 mm 1 mps 753 mmHg 96%

Day after tomorrow, 25 June, Friday

Time Temperature Precipitation Wind Pressure Humidity
00:00 +20°C° 0 mm 1 mps 753 mmHg 97%
01:00 +19°C° 0 mm 2 mps 753 mmHg 97%
02:00 +18°C° 0 mm 2 mps 754 mmHg 97%
03:00 +19°C° 0.1 mm 2 mps 753 mmHg 96%
04:00 +20°C° 0.1 mm 1 mps 753 mmHg 95%
05:00 +20°C° 0.1 mm 1 mps 753 mmHg 94%
06:00 +22°C° 0.1 mm 1 mps 753 mmHg 90%
07:00 +23°C° 0.1 mm 1 mps 752 mmHg 85%
08:00 +24°C° 0.1 mm 2 mps 752 mmHg 80%
09:00 +26°C° 0.1 mm 1 mps 752 mmHg 75%
10:00 +27°C° 0.1 mm 1 mps 752 mmHg 70%
11:00 +28°C° 0.1 mm 1 mps 752 mmHg 64%
12:00 +29°C° 0.3 mm 2 mps 752 mmHg 61%
13:00 +30°C° 0.3 mm 2 mps 752 mmHg 58%
14:00 +31°C° 0.3 mm 2 mps 752 mmHg 55%
15:00 +31°C° 0.4 mm 2 mps 751 mmHg 57%
16:00 +30°C° 0.4 mm 2 mps 750 mmHg 59%
17:00 +30°C° 0.4 mm 2 mps 750 mmHg 61%
18:00 +28°C° 2.2 mm 2 mps 750 mmHg 72%
19:00 +25°C° 2.2 mm 2 mps 750 mmHg 82%
20:00 +23°C° 2.2 mm 2 mps 750 mmHg 93%
21:00 +23°C° 0.7 mm 2 mps 750 mmHg 94%
22:00 +21°C° 0.7 mm 2 mps 750 mmHg 96%
23:00 +20°C° 0.7 mm 2 mps 750 mmHg 97%

26 June, Saturday

Time Temperature Precipitation Wind Pressure Humidity
00:00 +20°C° 0.1 mm 2 mps 750 mmHg 97%
01:00 +20°C° 0.1 mm 2 mps 750 mmHg 97%
02:00 +19°C° 0.1 mm 2 mps 750 mmHg 97%
03:00 +21°C° 0 mm 1 mps 750 mmHg 97%
04:00 +21°C° 0 mm 1 mps 750 mmHg 96%
05:00 +21°C° 0 mm 1 mps 750 mmHg 96%
06:00 +23°C° 0 mm 1 mps 750 mmHg 91%
07:00 +24°C° 0 mm 1 mps 751 mmHg 87%
08:00 +26°C° 0 mm 1 mps 751 mmHg 82%
09:00 +27°C° 0.1 mm 1 mps 751 mmHg 75%
10:00 +28°C° 0.1 mm 1 mps 751 mmHg 69%
11:00 +30°C° 0.1 mm 1 mps 751 mmHg 62%
12:00 +30°C° 0.1 mm 2 mps 751 mmHg 58%
13:00 +31°C° 0.1 mm 2 mps 751 mmHg 55%
14:00 +32°C° 0.1 mm 2 mps 751 mmHg 51%
15:00 +31°C° 0 mm 2 mps 750 mmHg 53%
16:00 +31°C° 0 mm 2 mps 750 mmHg 55%
17:00 +31°C° 0 mm 2 mps 750 mmHg 57%
18:00 +29°C° 0.2 mm 1 mps 750 mmHg 65%
19:00 +28°C° 0.2 mm 1 mps 750 mmHg 74%
20:00 +26°C° 0.2 mm 1 mps 750 mmHg 82%
21:00 +25°C° 0.9 mm 1 mps 750 mmHg 86%
22:00 +23°C° 0.9 mm 1 mps 750 mmHg 90%
23:00 +22°C° 0.9 mm 1 mps 750 mmHg 94%

27 June, Sunday

Time Temperature Precipitation Wind Pressure Humidity
00:00 +22°C° 0.9 mm 1 mps 750 mmHg 95%
01:00 +21°C° 0.9 mm 1 mps 750 mmHg 96%
02:00 +20°C° 0.9 mm 2 mps 750 mmHg 97%
03:00 +21°C° 0.2 mm 1 mps 750 mmHg 97%
04:00 +21°C° 0.2 mm 1 mps 750 mmHg 97%
05:00 +21°C° 0.2 mm 1 mps 750 mmHg 97%
06:00 +21°C° 0.2 mm 2 mps 750 mmHg 95%
07:00 +21°C° 0.2 mm 2 mps 750 mmHg 92%
08:00 +23°C° 0.2 mm 2 mps 751 mmHg 89%
09:00 +24°C° 0 mm 2 mps 751 mmHg 84%
10:00 +25°C° 0 mm 2 mps 751 mmHg 78%
11:00 +25°C° 0 mm 2 mps 751 mmHg 72%
12:00 +26°C° 0 mm 2 mps 751 mmHg 67%
13:00 +27°C° 0 mm 3 mps 751 mmHg 62%
14:00 +28°C° 0 mm 3 mps 751 mmHg 58%
15:00 +27°C° 0 mm 3 mps 751 mmHg 58%
16:00 +27°C° 0 mm 3 mps 751 mmHg 59%
17:00 +27°C° 0 mm 4 mps 751 mmHg 60%
18:00 +25°C° 0 mm 3 mps 751 mmHg 66%
19:00 +24°C° 0 mm 3 mps 751 mmHg 71%
20:00 +22°C° 0 mm 3 mps 751 mmHg 77%
21:00 +20°C° 0 mm 3 mps 751 mmHg 83%
22:00 +19°C° 0 mm 2 mps 752 mmHg 88%
23:00 +18°C° 0 mm 2 mps 752 mmHg 94%

28 June, Monday

Time Temperature Precipitation Wind Pressure Humidity
00:00 +17°C° 0 mm 2 mps 752 mmHg 95%
01:00 +17°C° 0 mm 2 mps 752 mmHg 95%
02:00 +16°C° 0 mm 2 mps 752 mmHg 96%
03:00 +16°C° 0 mm 2 mps 752 mmHg 93%
04:00 +17°C° 0 mm 2 mps 752 mmHg 91%
05:00 +17°C° 0 mm 3 mps 752 mmHg 89%
06:00 +18°C° 0 mm 3 mps 752 mmHg 81%
07:00 +20°C° 0 mm 3 mps 752 mmHg 73%
08:00 +21°C° 0 mm 3 mps 752 mmHg 65%
09:00 +22°C° 0 mm 3 mps 752 mmHg 61%
10:00 +24°C° 0 mm 3 mps 752 mmHg 56%
11:00 +26°C° 0 mm 3 mps 752 mmHg 51%
12:00 +26°C° 0 mm 3 mps 752 mmHg 49%
13:00 +27°C° 0 mm 3 mps 752 mmHg 47%
14:00 +27°C° 0 mm 3 mps 751 mmHg 45%
15:00 +26°C° 0 mm 2 mps 751 mmHg 52%
16:00 +25°C° 0 mm 2 mps 752 mmHg 59%
17:00 +24°C° 0 mm 2 mps 752 mmHg 66%
18:00 +23°C° 0 mm 2 mps 751 mmHg 68%
19:00 +23°C° 0 mm 2 mps 751 mmHg 71%
20:00 +21°C° 0 mm 2 mps 751 mmHg 73%
21:00 +20°C° 0 mm 2 mps 751 mmHg 78%
22:00 +19°C° 0 mm 2 mps 752 mmHg 82%
23:00 +18°C° 0 mm 2 mps 752 mmHg 87%
Show more